Location: Muenchen
(48.1800°N, 11.5800°E)
Time: 08:16:31
(UTC+02:00)

ISS - All Passes

Search period start: 25 August 2016 00:00
Search period end: 04 September 2016 00:00
Orbit: 402 x 406 km, 51.6° (Epoch: 25 August)

Date Brightness Start Highest point End Pass type
(mag) Time Alt. Az. Time Alt. Az. Time Alt. Az.
25 Aug - 10:54:23 10° SW 10:57:27 37° SE 11:00:32 10° ENE daylight
25 Aug - 12:30:36 10° W 12:33:51 59° NNW 12:37:07 10° ENE daylight
25 Aug - 14:07:28 10° WNW 14:10:39 45° N 14:13:50 10° E daylight
25 Aug - 15:44:00 10° WNW 15:47:18 80° SSW 15:50:35 10° ESE daylight
25 Aug - 17:21:13 10° W 17:23:21 16° SW 17:25:28 10° S daylight
26 Aug - 10:02:32 10° SSW 10:05:12 23° SE 10:07:52 10° E daylight
26 Aug - 11:38:06 10° WSW 11:41:24 79° NNW 11:44:43 10° ENE daylight
26 Aug - 13:14:58 10° WNW 13:18:08 43° N 13:21:19 10° ENE daylight
26 Aug - 14:51:35 10° WNW 14:54:53 72° NNE 14:58:10 10° ESE daylight
26 Aug - 16:28:20 10° W 16:31:09 26° SW 16:33:57 10° SSE daylight
27 Aug - 09:11:13 10° S 09:13:01 14° SE 09:14:48 10° ESE daylight
27 Aug - 10:45:43 10° WSW 10:49:01 70° SSE 10:52:17 10° ENE daylight
27 Aug - 12:22:25 10° W 12:25:36 46° N 12:28:48 10° ENE daylight
27 Aug - 13:59:10 10° WNW 14:02:25 55° NNE 14:05:40 10° E daylight
27 Aug - 15:35:43 10° WNW 15:38:52 43° SSW 15:42:00 10° SE daylight
28 Aug - 09:53:29 10° SW 09:56:38 44° SSE 09:59:47 10° ENE daylight
28 Aug - 11:29:51 10° W 11:33:05 54° NNW 11:36:21 10° ENE daylight
28 Aug - 13:06:42 10° WNW 13:09:53 46° N 13:13:06 10° E daylight
28 Aug - 14:43:13 10° WNW 14:46:30 69° SSW 14:49:46 10° ESE daylight
28 Aug - 16:20:45 10° WSW 16:22:28 14° SW 16:24:11 10° SSW daylight
29 Aug - 09:01:30 10° SSW 09:04:19 27° SE 09:07:10 10° E daylight
29 Aug - 10:37:19 10° WSW 10:40:36 71° NNW 10:43:53 10° ENE daylight
29 Aug - 12:14:10 10° WNW 12:17:21 43° N 12:20:31 10° ENE daylight
29 Aug - 13:50:46 10° WNW 13:54:04 81° NNE 13:57:21 10° ESE daylight
29 Aug - 15:27:37 10° W 15:30:15 22° SW 15:32:53 10° SSE daylight
30 Aug - 08:09:55 10° S 08:12:04 17° SE 08:14:14 10° E daylight
30 Aug - 09:44:50 10° WSW 09:48:08 81° SSE 09:51:25 10° ENE daylight
30 Aug - 11:21:36 10° W 11:24:47 44° N 11:27:58 10° ENE daylight
30 Aug - 12:58:18 10° WNW 13:01:34 59° NNE 13:04:49 10° E daylight
30 Aug - 14:34:54 10° WNW 14:37:57 36° SW 14:41:00 10° SE daylight
31 Aug - 08:52:31 10° SW 08:55:42 51° SSE 08:58:55 10° ENE daylight
31 Aug - 10:29:00 10° W 10:32:13 51° N 10:35:27 10° ENE daylight
31 Aug - 12:05:48 10° WNW 12:09:01 48° N 12:12:14 10° E daylight
31 Aug - 13:42:20 10° WNW 13:45:35 59° SSW 13:48:48 10° SE daylight
31 Aug - 15:20:22 10° WSW 15:21:29 11° SW 15:22:34 10° SSW daylight
01 Sep - 08:00:23 10° SSW 08:03:20 31° SE 08:06:18 10° E daylight
01 Sep - 09:36:24 10° W 09:39:40 64° NNW 09:42:57 10° ENE daylight
01 Sep - 11:13:16 10° WNW 11:16:27 43° N 11:19:37 10° ENE daylight
01 Sep - 12:49:49 10° WNW 12:53:07 90° SSW 12:56:25 10° ESE daylight
01 Sep - 14:26:50 10° W 14:29:15 19° SW 14:31:39 10° S daylight
02 Sep - 07:08:35 10° S 07:11:02 19° SE 07:13:28 10° E daylight
02 Sep - 08:43:52 10° WSW 08:47:09 89° NNW 08:50:27 10° ENE daylight
02 Sep - 10:20:40 10° WNW 10:23:50 43° N 10:27:01 10° ENE daylight
02 Sep - 11:57:19 10° WNW 12:00:36 65° NNE 12:03:52 10° E daylight
02 Sep - 13:33:58 10° W 13:36:56 31° SW 13:39:52 10° SSE daylight
03 Sep - 06:17:35 10° SSE 06:18:46 12° SE 06:19:58 10° ESE daylight
03 Sep - 07:51:26 10° SW 07:54:40 60° SSE 07:57:55 10° ENE daylight
03 Sep - 09:28:01 10° W 09:31:14 48° N 09:34:27 10° ENE daylight
03 Sep - 11:04:48 10° WNW 11:08:02 51° N 11:11:16 10° E daylight
03 Sep - 12:41:20 10° WNW 12:44:32 50° SSW 12:47:44 10° SE daylight
